| time (UTC) | temp F | wind direction | speed MPH | gust MPH | rain 1hr in | rain 24hr in | rain mn in | humidity % | barometer mb |
| 20260906084503 | 49 | 354 | 10.0 | 20.0 | 0.00 | 0.01 | 0.00 | 75 | 1007.4 |
| 20260906083002 | 48 | 330 | 8.0 | 22.0 | 0.00 | 0.01 | 0.00 | 78 | 1007.1 |
| 20260906081603 | 48 | 4 | 5.0 | 19.0 | 0.00 | 0.01 | 0.00 | 78 | 1007.0 |
| 20260906074503 | 48 | 338 | 8.0 | 21.0 | 0.00 | 0.01 | 0.00 | 79 | 1006.8 |
| 20260906073102 | 48 | 354 | 6.0 | 18.0 | 0.00 | 0.01 | 0.00 | 76 | 1006.7 |
| 20260906071612 | 48 | 18 | 7.0 | 16.0 | 0.00 | 0.01 | 0.00 | 77 | 1006.5 |
| 20260906070109 | 49 | 8 | 11.0 | 22.0 | 0.00 | 0.01 | 0.00 | 79 | 1006.3 |
| 20260906064601 | 48 | 321 | 7.0 | 18.0 | 0.00 | 0.01 | 0.00 | 78 | 1006.1 |
| 20260906063101 | 48 | 21 | 7.0 | 22.0 | 0.00 | 0.01 | 0.00 | 78 | 1005.8 |
| 20260906061629 | 48 | 8 | 13.0 | 21.0 | 0.00 | 0.01 | 0.00 | 77 | 1005.7 |
| 20260906060114 | 48 | 18 | 7.0 | 18.0 | 0.00 | 0.01 | 0.00 | 78 | 1005.4 |
| 20260906054610 | 48 | 27 | 8.0 | 23.0 | 0.00 | 0.01 | 0.00 | 76 | 1005.3 |
| 20260906053102 | 48 | 4 | 10.0 | 19.0 | 0.00 | 0.01 | 0.00 | 77 | 1005.2 |
| 20260906051610 | 48 | 28 | 6.0 | 20.0 | 0.00 | 0.01 | 0.00 | 76 | 1005.0 |
| 20260906050101 | 48 | 25 | 11.0 | 18.0 | 0.00 | 0.01 | 0.00 | 77 | 1004.9 |
| 20260906044600 | 48 | 4 | 8.0 | 20.0 | 0.00 | 0.01 | 0.00 | 76 | 1004.7 |
| 20260906043106 | 48 | 4 | 8.0 | 24.0 | 0.00 | 0.01 | 0.00 | 77 | 1004.5 |
| 20260906041602 | 48 | 354 | 8.0 | 19.0 | 0.00 | 0.01 | 0.00 | 76 | 1004.6 |
| 20260906040100 | 49 | 4 | 11.0 | 23.0 | 0.00 | 0.01 | 0.00 | 78 | 1004.3 |
| 20260906034510 | 49 | 8 | 9.0 | 20.0 | 0.00 | 0.02 | 0.00 | 77 | 1004.2 |
| 20260906033101 | 49 | 10 | 7.0 | 23.0 | 0.00 | 0.02 | 0.00 | 76 | 1004.1 |
| 20260906031500 | 49 | 4 | 7.0 | 19.0 | 0.00 | 0.02 | 0.00 | 78 | 1004.1 |
| 20260906030101 | 49 | 354 | 8.0 | 20.0 | 0.00 | 0.02 | 0.00 | 76 | 1003.8 |
| 20260906024611 | 49 | 16 | 7.0 | 20.0 | 0.00 | 0.02 | 0.00 | 77 | 1003.7 |
| 20260906023110 | 49 | 16 | 9.0 | 22.0 | 0.00 | 0.02 | 0.00 | 76 | 1003.6 |
| 20260906021601 | 50 | 4 | 7.0 | 17.0 | 0.00 | 0.02 | 0.00 | 76 | 1003.5 |
| 20260906014609 | 50 | 336 | 7.0 | 18.0 | 0.00 | 0.02 | 0.00 | 75 | 1003.2 |
| 20260906013101 | 50 | 12 | 9.0 | 18.0 | 0.00 | 0.02 | 0.00 | 74 | 1003.0 |
| 20260906011501 | 51 | 349 | 8.0 | 18.0 | 0.00 | 0.02 | 0.00 | 76 | 1002.9 |
| 20260906010004 | 51 | 28 | 8.0 | 17.0 | 0.00 | 0.02 | 0.00 | 75 | 1002.7 |
| 20260906004601 | 51 | 4 | 9.0 | 20.0 | 0.00 | 0.02 | 0.00 | 77 | 1002.6 |
| 20260906003003 | 51 | 23 | 9.0 | 21.0 | 0.00 | 0.02 | 0.00 | 75 | 1002.4 |
| 20260906001501 | 51 | 19 | 4.0 | 16.0 | 0.00 | 0.02 | 0.00 | 76 | 1002.3 |
| 20260906000002 | 51 | 4 | 4.0 | 17.0 | 0.00 | 0.02 | 0.00 | 77 | 1002.1 |
| 20260905234501 | 51 | 345 | 5.0 | 19.0 | 0.00 | 0.02 | 0.00 | 78 | 1002.1 |
| 20260905233002 | 51 | 27 | 6.0 | 18.0 | 0.00 | 0.02 | 0.00 | 79 | 1002.1 |
| 20260905231601 | 51 | 50 | 5.0 | 16.0 | 0.00 | 0.02 | 0.00 | 78 | 1002.1 |
| 20260905230001 | 51 | 21 | 8.0 | 19.0 | 0.00 | 0.02 | 0.00 | 77 | 1002.0 |
| 20260905224516 | 51 | 4 | 5.0 | 16.0 | 0.00 | 0.02 | 0.00 | 78 | 1002.0 |
| 20260905223012 | 51 | 4 | 3.0 | 16.0 | 0.00 | 0.02 | 0.00 | 80 | 1001.9 |
| 20260905221548 | 51 | 349 | 6.0 | 14.0 | 0.00 | 0.02 | 0.00 | 80 | 1001.9 |
| 20260905214601 | 51 | 9 | 5.0 | 20.0 | 0.00 | 0.02 | 0.00 | 81 | 1001.7 |
| 20260905213001 | 51 | 346 | 6.0 | 20.0 | 0.00 | 0.02 | 0.00 | 81 | 1001.6 |
| 20260905211501 | 52 | 337 | 5.0 | 15.0 | 0.00 | 0.02 | 0.00 | 82 | 1001.4 |
| 20260905210000 | 52 | 13 | 6.0 | 18.0 | 0.00 | 0.04 | 0.02 | 81 | 1001.3 |
| 20260905204512 | 52 | 354 | 5.0 | 15.0 | 0.00 | 0.04 | 0.02 | 81 | 1001.2 |
| 20260905203102 | 52 | 16 | 9.0 | 20.0 | 0.00 | 0.04 | 0.02 | 82 | 1001.2 |
| 20260905201602 | 52 | 8 | 7.0 | 19.0 | 0.00 | 0.04 | 0.02 | 81 | 1001.0 |
| 20260905200104 | 52 | 354 | 11.0 | 20.0 | 0.00 | 0.04 | 0.02 | 80 | 1000.9 |
| 20260905194502 | 52 | 13 | 10.0 | 20.0 | 0.00 | 0.04 | 0.02 | 81 | 1000.7 |
| 20260905193103 | 52 | 24 | 13.0 | 21.0 | 0.00 | 0.04 | 0.02 | 83 | 1000.7 |
| 20260905191501 | 52 | 42 | 9.0 | 21.0 | 0.00 | 0.04 | 0.02 | 83 | 1000.7 |
| 20260905190002 | 52 | 38 | 11.0 | 20.0 | 0.00 | 0.04 | 0.02 | 82 | 1000.7 |
| 20260905184602 | 51 | 27 | 10.0 | 22.0 | 0.00 | 0.04 | 0.02 | 85 | 1000.6 |
| 20260905181602 | 51 | 40 | 13.0 | 23.0 | 0.00 | 0.04 | 0.02 | 86 | 1000.3 |
| 20260905180015 | 51 | 73 | 11.0 | 19.0 | 0.00 | 0.04 | 0.02 | 87 | 1000.2 |
| 20260905174601 | 51 | 359 | 11.0 | 20.0 | 0.00 | 0.04 | 0.02 | 87 | 1000.1 |
| 20260905173001 | 51 | 21 | 12.0 | 27.0 | 0.00 | 0.04 | 0.02 | 87 | 1000.0 |
| 20260905170012 | 52 | 28 | 12.0 | 21.0 | 0.00 | 0.04 | 0.02 | 84 | 999.7 |
| 20260905164512 | 52 | 31 | 11.0 | 20.0 | 0.00 | 0.04 | 0.02 | 84 | 999.4 |
| 20260905163002 | 52 | 21 | 9.0 | 21.0 | 0.00 | 0.04 | 0.02 | 86 | 999.3 |
| 20260905161501 | 52 | 9 | 12.0 | 19.0 | 0.00 | 0.04 | 0.02 | 84 | 999.2 |
| 20260905160112 | 51 | 347 | 10.0 | 22.0 | 0.00 | 0.04 | 0.02 | 85 | 999.1 |
| 20260905154512 | 51 | 347 | 12.0 | 20.0 | 0.01 | 0.04 | 0.02 | 86 | 999.0 |
| 20260905153115 | 51 | 23 | 10.0 | 25.0 | 0.01 | 0.04 | 0.02 | 87 | 998.9 |
| 20260905151503 | 51 | 9 | 10.0 | 21.0 | 0.01 | 0.04 | 0.02 | 87 | 998.8 |
| 20260905150002 | 51 | 29 | 7.0 | 21.0 | 0.01 | 0.04 | 0.02 | 88 | 998.7 |
| 20260905143003 | 51 | 35 | 8.0 | 20.0 | 0.00 | 0.03 | 0.01 | 87 | 998.4 |
| 20260905141501 | 51 | 14 | 10.0 | 20.0 | 0.00 | 0.03 | 0.01 | 86 | 998.2 |
| 20260905140012 | 51 | 39 | 13.0 | 21.0 | 0.00 | 0.03 | 0.01 | 86 | 998.1 |
| 20260905134502 | 51 | 50 | 10.0 | 20.0 | 0.00 | 0.03 | 0.01 | 87 | 998.0 |
| 20260905133102 | 51 | 343 | 11.0 | 22.0 | 0.00 | 0.03 | 0.01 | 87 | 997.9 |
| 20260905131618 | 51 | 28 | 11.0 | 23.0 | 0.00 | 0.03 | 0.01 | 87 | 997.8 |
| 20260905130001 | 51 | 341 | 8.0 | 22.0 | 0.00 | 0.03 | 0.01 | 88 | 997.6 |
| 20260905124502 | 52 | 16 | 11.0 | 21.0 | 0.00 | 0.03 | 0.01 | 86 | 997.5 |
| 20260905123106 | 52 | 30 | 11.0 | 23.0 | 0.00 | 0.03 | 0.01 | 86 | 997.4 |
| 20260905121612 | 52 | 40 | 9.0 | 20.0 | 0.00 | 0.03 | 0.01 | 86 | 997.4 |
| 20260905120002 | 52 | 354 | 8.0 | 22.0 | 0.00 | 0.03 | 0.01 | 87 | 997.1 |
| 20260905114603 | 51 | 23 | 12.0 | 23.0 | 0.00 | 0.03 | 0.01 | 88 | 997.0 |
| 20260905113002 | 51 | 52 | 13.0 | 24.0 | 0.00 | 0.03 | 0.01 | 88 | 996.9 |
| 20260905111505 | 51 | 12 | 11.0 | 21.0 | 0.00 | 0.03 | 0.01 | 88 | 996.6 |
| 20260905110003 | 52 | 14 | 11.0 | 26.0 | 0.00 | 0.03 | 0.01 | 88 | 996.4 |
| 20260905104606 | 52 | 354 | 14.0 | 26.0 | 0.00 | 0.03 | 0.01 | 88 | 996.2 |
| 20260905103104 | 52 | 15 | 12.0 | 23.0 | 0.00 | 0.03 | 0.01 | 88 | 996.1 |
| 20260905101513 | 52 | 29 | 12.0 | 22.0 | 0.00 | 0.03 | 0.01 | 88 | 995.9 |
| 20260905100125 | 52 | 27 | 14.0 | 23.0 | 0.00 | 0.03 | 0.01 | 88 | 995.8 |
| 20260905094602 | 53 | 18 | 10.0 | 24.0 | 0.00 | 0.03 | 0.01 | 88 | 995.6 |
| 20260905093103 | 53 | 354 | 12.0 | 25.0 | 0.00 | 0.03 | 0.01 | 87 | 995.4 |
| 20260905091503 | 53 | 23 | 14.0 | 24.0 | 0.00 | 0.03 | 0.01 | 88 | 995.1 |